• In Hungary
  • List of Countries
  • For 7 days
  • Water Temperature
  • Satellite Maps
  • Weather Map
  • News
  • Weather Widgets
  • user-avatar
    Login

    Hourly Weather Ardea

    Today, 19 September, Wednesday

    Time Temperature Precipitation Wind Pressure Humidity
    00:00 +24°C° 0.7 mm 3 mps 761 mmHg 82%
    01:00 +24°C° 0.7 mm 3 mps 761 mmHg 84%
    02:00 +24°C° 0.9 mm 3 mps 761 mmHg 83%
    03:00 +24°C° 0.9 mm 3 mps 761 mmHg 83%
    04:00 +24°C° 0.9 mm 3 mps 760 mmHg 82%
    05:00 +23°C° 0.8 mm 4 mps 760 mmHg 81%
    06:00 +23°C° 0.8 mm 4 mps 760 mmHg 79%
    07:00 +25°C° 0.8 mm 4 mps 760 mmHg 78%
    08:00 +26°C° 0.7 mm 4 mps 761 mmHg 73%
    09:00 +27°C° 0.7 mm 4 mps 761 mmHg 68%
    10:00 +28°C° 0.7 mm 4 mps 761 mmHg 63%
    11:00 +28°C° 0.8 mm 4 mps 761 mmHg 63%
    12:00 +28°C° 0.8 mm 4 mps 760 mmHg 63%
    13:00 +29°C° 0.8 mm 4 mps 760 mmHg 63%
    14:00 +28°C° 0.4 mm 4 mps 760 mmHg 65%
    15:00 +28°C° 0.4 mm 3 mps 760 mmHg 67%
    16:00 +28°C° 0.4 mm 3 mps 760 mmHg 69%
    17:00 +27°C° 0.4 mm 3 mps 760 mmHg 72%
    18:00 +26°C° 0.4 mm 3 mps 760 mmHg 74%
    19:00 +26°C° 0.4 mm 2 mps 760 mmHg 77%
    20:00 +25°C° 0.4 mm 3 mps 760 mmHg 77%
    21:00 +25°C° 0.4 mm 3 mps 760 mmHg 78%
    22:00 +25°C° 0.4 mm 3 mps 761 mmHg 78%
    23:00 +25°C° 0.3 mm 3 mps 760 mmHg 78%

    Tomorrow, 20 September, Thursday

    Time Temperature Precipitation Wind Pressure Humidity
    00:00 +25°C° 0.3 mm 3 mps 760 mmHg 78%
    01:00 +24°C° 0.3 mm 3 mps 760 mmHg 78%
    02:00 +23°C° 0.3 mm 4 mps 760 mmHg 77%
    03:00 +23°C° 0.3 mm 4 mps 760 mmHg 77%
    04:00 +23°C° 0.3 mm 4 mps 759 mmHg 76%
    05:00 +23°C° 0.3 mm 4 mps 759 mmHg 75%
    06:00 +23°C° 0.3 mm 4 mps 760 mmHg 74%
    07:00 +25°C° 0.3 mm 5 mps 760 mmHg 72%
    08:00 +26°C° 0.4 mm 5 mps 760 mmHg 66%
    09:00 +28°C° 0.4 mm 5 mps 760 mmHg 59%
    10:00 +30°C° 0.4 mm 5 mps 760 mmHg 53%
    11:00 +30°C° 0.1 mm 5 mps 760 mmHg 52%
    12:00 +30°C° 0.1 mm 5 mps 760 mmHg 52%
    13:00 +32°C° 0.1 mm 5 mps 759 mmHg 52%
    14:00 +32°C° 0.2 mm 5 mps 759 mmHg 54%
    15:00 +30°C° 0.2 mm 4 mps 759 mmHg 56%
    16:00 +30°C° 0.2 mm 4 mps 759 mmHg 58%
    17:00 +29°C° 0.4 mm 4 mps 759 mmHg 64%
    18:00 +27°C° 0.4 mm 3 mps 759 mmHg 69%
    19:00 +26°C° 0.4 mm 2 mps 759 mmHg 75%
    20:00 +26°C° 0.2 mm 2 mps 759 mmHg 76%
    21:00 +25°C° 0.2 mm 2 mps 760 mmHg 77%
    22:00 +25°C° 0.2 mm 2 mps 760 mmHg 78%
    23:00 +25°C° 0.1 mm 2 mps 760 mmHg 77%

    Day after tomorrow, 21 September, Friday

    Time Temperature Precipitation Wind Pressure Humidity
    00:00 +24°C° 0.1 mm 3 mps 759 mmHg 77%
    01:00 +24°C° 0.1 mm 3 mps 759 mmHg 76%
    02:00 +24°C° 0 mm 3 mps 759 mmHg 75%
    03:00 +24°C° 0 mm 3 mps 759 mmHg 75%
    04:00 +24°C° 0 mm 3 mps 759 mmHg 74%
    05:00 +24°C° 0 mm 3 mps 759 mmHg 72%
    06:00 +24°C° 0 mm 3 mps 759 mmHg 71%
    07:00 +25°C° 0 mm 3 mps 759 mmHg 70%
    08:00 +26°C° 0 mm 3 mps 759 mmHg 63%
    09:00 +28°C° 0 mm 4 mps 759 mmHg 57%
    10:00 +30°C° 0 mm 4 mps 759 mmHg 51%
    11:00 +30°C° 0 mm 4 mps 759 mmHg 50%
    12:00 +32°C° 0 mm 4 mps 759 mmHg 49%
    13:00 +32°C° 0 mm 4 mps 759 mmHg 48%
    14:00 +32°C° 0.2 mm 4 mps 759 mmHg 50%
    15:00 +30°C° 0.2 mm 4 mps 758 mmHg 53%
    16:00 +30°C° 0.2 mm 4 mps 758 mmHg 56%
    17:00 +28°C° 0.1 mm 3 mps 758 mmHg 61%
    18:00 +27°C° 0.1 mm 2 mps 758 mmHg 67%
    19:00 +26°C° 0.1 mm 2 mps 759 mmHg 73%
    20:00 +25°C° 0.1 mm 1 mps 759 mmHg 74%
    21:00 +25°C° 0.1 mm 1 mps 759 mmHg 75%
    22:00 +25°C° 0.1 mm 1 mps 760 mmHg 76%
    23:00 +25°C° 0 mm 1 mps 760 mmHg 76%

    22 September, Saturday

    Time Temperature Precipitation Wind Pressure Humidity
    00:00 +24°C° 0 mm 1 mps 759 mmHg 77%
    01:00 +24°C° 0 mm 1 mps 759 mmHg 77%
    02:00 +24°C° 0 mm 1 mps 759 mmHg 77%
    03:00 +24°C° 0 mm 2 mps 759 mmHg 77%
    04:00 +24°C° 0 mm 2 mps 759 mmHg 77%
    05:00 +24°C° 0 mm 2 mps 759 mmHg 76%
    06:00 +24°C° 0 mm 2 mps 760 mmHg 74%
    07:00 +25°C° 0 mm 2 mps 760 mmHg 73%
    08:00 +26°C° 0 mm 2 mps 760 mmHg 67%
    09:00 +28°C° 0 mm 3 mps 760 mmHg 62%
    10:00 +29°C° 0 mm 3 mps 760 mmHg 56%
    11:00 +30°C° 0 mm 3 mps 760 mmHg 55%
    12:00 +30°C° 0 mm 4 mps 759 mmHg 54%
    13:00 +30°C° 0 mm 4 mps 759 mmHg 53%
    14:00 +30°C° 0 mm 4 mps 759 mmHg 56%
    15:00 +30°C° 0 mm 4 mps 759 mmHg 59%
    16:00 +29°C° 0 mm 4 mps 758 mmHg 62%
    17:00 +28°C° 0 mm 3 mps 759 mmHg 68%
    18:00 +27°C° 0 mm 3 mps 759 mmHg 75%
    19:00 +26°C° 0 mm 3 mps 759 mmHg 81%
    20:00 +25°C° 0 mm 3 mps 760 mmHg 83%
    21:00 +25°C° 0 mm 3 mps 760 mmHg 85%
    22:00 +25°C° 0 mm 3 mps 761 mmHg 86%
    23:00 +25°C° 0 mm 3 mps 760 mmHg 86%

    23 September, Sunday

    Time Temperature Precipitation Wind Pressure Humidity
    00:00 +24°C° 0 mm 3 mps 760 mmHg 85%
    01:00 +24°C° 0 mm 3 mps 760 mmHg 84%
    02:00 +24°C° 0 mm 3 mps 760 mmHg 82%
    03:00 +24°C° 0 mm 3 mps 760 mmHg 81%
    04:00 +24°C° 0 mm 3 mps 760 mmHg 79%
    05:00 +24°C° 0 mm 3 mps 760 mmHg 78%
    06:00 +24°C° 0 mm 3 mps 760 mmHg 78%
    07:00 +24°C° 0 mm 3 mps 761 mmHg 77%
    08:00 +25°C° 0 mm 3 mps 761 mmHg 70%
    09:00 +27°C° 0 mm 3 mps 761 mmHg 64%
    10:00 +28°C° 0 mm 3 mps 761 mmHg 58%
    11:00 +29°C° 0 mm 4 mps 760 mmHg 55%
    12:00 +29°C° 0 mm 4 mps 760 mmHg 52%
    13:00 +30°C° 0 mm 5 mps 760 mmHg 48%
    14:00 +29°C° 0 mm 4 mps 760 mmHg 51%
    15:00 +29°C° 0 mm 4 mps 759 mmHg 53%
    16:00 +28°C° 0 mm 4 mps 759 mmHg 55%
    17:00 +27°C° 0 mm 4 mps 759 mmHg 62%
    18:00 +26°C° 0 mm 3 mps 759 mmHg 69%
    19:00 +24°C° 0 mm 2 mps 759 mmHg 75%
    20:00 +24°C° 0 mm 2 mps 759 mmHg 76%
    21:00 +24°C° 0 mm 2 mps 759 mmHg 78%
    22:00 +23°C° 0 mm 2 mps 759 mmHg 79%
    23:00 +22°C° 0 mm 3 mps 758 mmHg 79%

    24 September, Monday

    Time Temperature Precipitation Wind Pressure Humidity
    00:00 +22°C° 0 mm 3 mps 758 mmHg 79%
    01:00 +22°C° 0 mm 4 mps 758 mmHg 79%
    02:00 +23°C° 0 mm 4 mps 757 mmHg 79%
    03:00 +23°C° 0 mm 4 mps 757 mmHg 79%
    04:00 +23°C° 0 mm 5 mps 756 mmHg 79%
    05:00 +23°C° 0.2 mm 5 mps 756 mmHg 80%
    06:00 +23°C° 0.2 mm 6 mps 755 mmHg 82%
    07:00 +24°C° 0.2 mm 6 mps 755 mmHg 83%
    08:00 +26°C° 0.1 mm 7 mps 755 mmHg 73%
    09:00 +27°C° 0.1 mm 8 mps 755 mmHg 63%
    10:00 +28°C° 0.1 mm 10 mps 754 mmHg 53%
    11:00 +28°C° 0 mm 9 mps 754 mmHg 48%
    12:00 +28°C° 0 mm 9 mps 754 mmHg 43%
    13:00 +29°C° 0 mm 8 mps 753 mmHg 38%
    14:00 +28°C° 0 mm 8 mps 753 mmHg 38%
    15:00 +28°C° 0 mm 8 mps 753 mmHg 38%
    16:00 +27°C° 0 mm 8 mps 753 mmHg 38%
    17:00 +26°C° 0 mm 7 mps 753 mmHg 39%
    18:00 +24°C° 0 mm 7 mps 753 mmHg 39%
    19:00 +23°C° 0 mm 7 mps 753 mmHg 40%
    20:00 +22°C° 0 mm 7 mps 754 mmHg 40%
    21:00 +22°C° 0 mm 7 mps 754 mmHg 39%
    22:00 +21°C° 0 mm 7 mps 754 mmHg 39%
    23:00 +20°C° 0 mm 7 mps 755 mmHg 44%
    Show more